Fort Myers - Cape Coral Weather Center

Moon Phase Calendar



Online Cameras

 


      

Current Conditions in Burnt Store Marina
2/26/2021 10:21:34 PM

73°F
Feels Like 76
Clouds
Humidity
80%
Pressure
30.12"
Wind
5.7 mph (E)
Dew Point
66°F
UV Index
0/10 (Low)
Visibility
6 mi

Hourly Forecast

Date & Time Fri, Feb 26
10:00 PM
Fri, Feb 26
11:00 PM
Sat, Feb 27
12:00 AM
Sat, Feb 27
1:00 AM
Sat, Feb 27
2:00 AM
Sat, Feb 27
3:00 AM
Sat, Feb 27
4:00 AM
Sat, Feb 27
5:00 AM
Sat, Feb 27
6:00 AM
Sat, Feb 27
7:00 AM
Sat, Feb 27
8:00 AM
Sat, Feb 27
9:00 AM
Sat, Feb 27
10:00 AM
Sat, Feb 27
11:00 AM
Sat, Feb 27
12:00 PM
Sat, Feb 27
1:00 PM
Sat, Feb 27
2:00 PM
Sat, Feb 27
3:00 PM
Sat, Feb 27
4:00 PM
Sat, Feb 27
5:00 PM
Sat, Feb 27
6:00 PM
Sat, Feb 27
7:00 PM
Sat, Feb 27
8:00 PM
Sat, Feb 27
9:00 PM
Sat, Feb 27
10:00 PM
Sat, Feb 27
11:00 PM
Sun, Feb 28
12:00 AM
Sun, Feb 28
1:00 AM
Sun, Feb 28
2:00 AM
Sun, Feb 28
3:00 AM
Sun, Feb 28
4:00 AM
Sun, Feb 28
5:00 AM
Sun, Feb 28
6:00 AM
Sun, Feb 28
7:00 AM
Sun, Feb 28
8:00 AM
Sun, Feb 28
9:00 AM
Sun, Feb 28
10:00 AM
Sun, Feb 28
11:00 AM
Sun, Feb 28
12:00 PM
Sun, Feb 28
1:00 PM
Sun, Feb 28
2:00 PM
Sun, Feb 28
3:00 PM
Sun, Feb 28
4:00 PM
Sun, Feb 28
5:00 PM
Sun, Feb 28
6:00 PM
Sun, Feb 28
7:00 PM
Sun, Feb 28
8:00 PM
Sun, Feb 28
9:00 PM
Condition
Clouds

Clouds

Clouds

Clouds

Clear

Clear

Clear

Clear

Clear

Clear

Clear

Clear

Clear

Clear

Clear

Clear

Clouds

Rain

Clouds

Clouds

Clouds

Clouds

Clouds

Clouds

Clouds

Clear

Clear

Clear

Clear

Clear

Clear

Clear

Clear

Clear

Clear

Clear

Clear

Clear

Clear

Clear

Clouds

Clouds

Clouds

Clouds

Clouds

Clouds

Clouds

Clouds
Temperature 73°F72°F71°F70°F69°F68°F68°F67°F67°F67°F70°F74°F77°F80°F82°F83°F80°F77°F80°F80°F77°F74°F74°F73°F73°F72°F71°F71°F71°F70°F69°F68°F68°F67°F70°F75°F78°F80°F82°F83°F84°F81°F81°F79°F78°F76°F75°F74°F
Feels Like 76°F75°F75°F73°F70°F69°F69°F68°F68°F68°F70°F74°F76°F79°F81°F83°F81°F79°F81°F81°F79°F77°F77°F77°F75°F73°F72°F71°F70°F69°F69°F68°F68°F68°F70°F72°F75°F77°F80°F82°F83°F82°F81°F80°F79°F78°F77°F76°F
Cloudiness 61%54%43%33%0%0%0%0%0%0%0%0%0%0%0%0%80%81%59%44%35%34%35%20%13%10%8%7%0%8%8%6%6%4%0%2%7%5%4%4%12%39%54%51%54%49%19%14%
Visibility 6 mi6 mi6 mi6 mi6 mi6 mi6 mi6 mi6 mi6 mi6 mi6 mi6 mi6 mi6 mi6 mi6 mi6 mi6 mi6 mi6 mi6 mi6 mi6 mi6 mi6 mi6 mi6 mi6 mi6 mi6 mi6 mi6 mi6 mi6 mi6 mi6 mi6 mi6 mi6 mi6 mi6 mi6 mi6 mi6 mi6 mi6 mi6 mi
Precipitation 0%0%0%0%0%0%0%0%0%0%0%0%0%0%0%0%24%28%24%12%8%8%0%0%0%0%0%0%0%0%0%0%0%0%0%0%0%0%0%0%0%0%0%0%0%0%0%0%
Humidity 80%81%83%84%86%88%90%93%94%94%89%79%72%62%53%53%64%68%60%61%67%73%75%76%75%76%81%83%84%83%84%88%90%91%85%73%65%60%57%56%56%59%61%66%71%74%76%78%
Dew Point 66°F66°F66°F65°F64°F64°F65°F65°F66°F66°F67°F67°F67°F66°F63°F64°F67°F66°F65°F65°F66°F65°F66°F65°F65°F64°F65°F66°F66°F65°F65°F65°F65°F65°F66°F65°F65°F65°F65°F65°F66°F66°F66°F67°F67°F67°F67°F67°F
Pressure 30.12"30.12"30.15"30.15"30.12"30.12"30.09"30.12"30.15"30.15"30.18"30.18"30.18"30.18"30.18"30.15"30.15"30.12"30.12"30.12"30.15"30.15"30.18"30.18"30.18"30.18"30.18"30.18"30.18"30.15"30.12"30.15"30.15"30.15"30.18"30.18"30.18"30.18"30.18"30.15"30.12"30.09"30.09"30.09"30.09"30.12"30.12"30.12"
Wind Speed 4.7 mph4.3 mph3.8 mph4.8 mph6.2 mph6.2 mph7.2 mph7.8 mph8.4 mph8.6 mph10 mph12 mph12.2 mph11.4 mph11.1 mph9.3 mph9.1 mph7.1 mph6.7 mph6.5 mph6.3 mph4.5 mph3.5 mph3 mph6.5 mph7.6 mph8.5 mph9.5 mph10.9 mph11.5 mph10 mph8.9 mph8.1 mph8.2 mph10.8 mph14.7 mph14.7 mph14.1 mph13 mph11.9 mph11.3 mph9.8 mph10.9 mph10.5 mph9.1 mph7.6 mph7.7 mph7.8 mph
Wind
Direction
144°
SE
157°
SSE
141°
SE
119°
ESE
118°
ESE
101°
E
88°
E
83°
E
86°
E
94°
E
105°
ESE
119°
ESE
127°
SE
132°
SE
138°
SE
153°
SSE
172°
S
206°
SSW
201°
SSW
205°
SSW
217°
SW
210°
SSW
189°
S
123°
ESE
79°
E
88°
E
104°
ESE
109°
ESE
113°
ESE
118°
ESE
120°
ESE
117°
ESE
109°
ESE
110°
ESE
116°
ESE
126°
SE
131°
SE
139°
SE
145°
SE
159°
SSE
171°
S
186°
S
190°
S
194°
SSW
194°
SSW
192°
SSW
173°
S
159°
SSE

Daily Forecast

Date High Low Precip. Humidity
Today
Feb 26

Rain
83 °F
64 °F
35%
49%
Saturday
Feb 27

Clear
83 °F
67 °F
4%
58%
Sunday
Feb 28

Rain
83 °F
68 °F
20%
56%
Monday
Mar 1

Clouds
81 °F
68 °F
1%
60%
Tuesday
Mar 2

Rain
71 °F
65 °F
36%
69%
Wednesday
Mar 3

Rain
78 °F
67 °F
63%
63%
Thursday
Mar 4

Clear
81 °F
65 °F
0%
52%
Friday
Mar 5

Clouds
79 °F
65 °F
14%
54%
Saturday
Mar 6

Rain
78 °F
67 °F
100%
62%
Sunday
Mar 7

Rain
75 °F
66 °F
100%
57%
Monday
Mar 8

Rain
73 °F
63 °F
20%
58%
Tuesday
Mar 9

Clouds
72 °F
60 °F
0%
49%
Wednesday
Mar 10

Clear
74 °F
58 °F
0%
47%
Thursday
Mar 11

Clear
77 °F
60 °F
0%
47%
Friday
Mar 12

Clear
78 °F
60 °F
0%
43%
Saturday
Mar 13

Clear
77 °F
60 °F
0%
38%


Temperature 8-14 Day Outlook



Precipitation 8-14 Day Outlook




Quick Links
Fort Myers - Cape Coral News
Fort Myers - Cape Coral Photos
Fort Myers - Cape Coral Videos




About Us
Contact Us
Site Map
Search Site
Advertise With Us
   
FortMyers.USGulf.info
THE FORT MYERS - CAPE CORAL WEBSITE

Copyright 2021, Coastal Town
Privacy    |    Legal